Location: *
(46.0770°N, 1.6444°E)
Time: 22:54:12
(UTC+00:00)

Okean 1 Rocket - Pass Details

Date: 16 September 2019
Orbit: 608 x 634 km, 82.5° (Epoch: 14 October)

Event Time Altitude Azimuth Distance (km) Brightness Sun altitude
Rises 19:57:30 0° 206° (SSW) 2,854 6.5 -19.8°
Reaches altitude 10° 19:59:48 10° 213° (SSW) 1,956 5.7 -20.2°
Maximum altitude 20:03:54 41° 284° (WNW) 891 4.3 -20.8°
Drops below altitude 10° 20:08:03 10° 355° (N) 1,978 6.0 -21.4°
Sets 20:10:24 0° 3° (N) 2,891 6.8 -21.8°
